Latest Weather Observations for Temora

IDN60801

Issued at 2:04 pm EDT Friday 19 December 2014 (issued every 30 minutes, with the page automatically refreshed every 10 minutes)

About weather observations | Map of weather stations | Latest weather observations for NSW | Other Formats
Station Details ID: 073151 Name: TEMORA AIRPORT Lat: -34.43 Lon: 147.51 Height: 280.5 m
Data from the previous 72 hours. | See also: Recent months at Temora
Date/Time
EDT
Temp
°C
App
Temp
°C
Dew
Point
Rel
Hum
%
Delta-T
°C
Wind Press
QNH
hPa
Press
MSL
hPa
Rain
since 9 am
mm
Dir
 
Spd
km/h
Gust
km/h
Spd
kts
Gust
kts
19/02:00pm 24.5 17.4 -1.3 18 11.7 WSW 26 39 14 21 1014.6 1013.5 0.0
19/01:30pm 23.6 16.9 -1.3 19 11.2 WSW 24 35 13 19 1014.9 1013.7 0.0
19/01:00pm 24.0 18.2 -0.3 20 11.2 WSW 20 32 11 17 1015.0 1013.8 0.0
19/12:30pm 23.1 16.8 -1.1 20 10.9 WSW 22 32 12 17 1015.2 1014.0 0.0
19/12:00pm 21.9 15.7 -0.1 23 10.0 SW 22 32 12 17 1015.3 1014.1 0.0
19/11:30am 22.0 16.2 2.2 27 9.4 SW 22 44 12 24 1015.4 1014.2 0.0
19/11:00am 20.6 13.9 1.5 28 8.9 SW 26 41 14 22 1015.5 1014.3 0.0
19/10:30am 19.9 13.4 2.7 32 8.1 WSW 26 43 14 23 1015.7 1014.5 0.0
19/10:00am 20.4 14.4 3.2 32 8.2 SW 24 41 13 22 1015.7 1014.5 0.0
19/09:30am 19.1 13.1 3.3 35 7.5 SSW 24 33 13 18 1015.7 1014.5 0.0
19/09:00am 18.3 12.9 4.5 40 6.7 SSW 22 32 12 17 1015.5 1014.3 0.0
19/08:30am 17.5 12.9 5.8 46 5.8 SSW 19 26 10 14 1015.1 1013.9 0.0
19/08:00am 16.3 11.7 6.7 53 4.8 SW 20 28 11 15 1015.0 1013.8 0.0
19/07:30am 14.8 10.5 7.1 60 3.8 SW 19 26 10 14 1014.6 1013.5 0.0
19/07:00am 13.8 11.0 6.9 63 3.4 SW 11 20 6 11 1014.1 1013.0 0.0
19/06:30am 11.8 9.3 6.7 71 2.5 SW 9 11 5 6 1013.5 1012.3 0.0
19/06:00am 11.1 9.8 6.0 71 2.4 SW 2 7 1 4 1013.1 1011.9 0.0
19/05:30am 11.7 9.5 6.0 68 2.7 WSW 7 9 4 5 1013.0 1011.8 0.0
19/05:00am 12.5 10.3 6.3 66 3.0 SW 7 11 4 6 1012.6 1011.4 0.0
19/04:30am 13.1 10.6 6.5 64 3.2 SW 9 13 5 7 1012.3 1011.1 0.0
19/04:00am 14.1 11.2 6.5 60 3.7 SSW 11 15 6 8 1012.0 1010.8 0.0
19/03:30am 14.2 11.3 6.3 59 3.9 SW 11 15 6 8 1011.8 1010.6 0.0
19/02:30am 15.9 11.8 6.3 53 4.7 SSW 17 20 9 11 1011.6 1010.4 0.0
19/02:00am 16.3 12.6 6.4 52 4.9 SSW 15 20 8 11 1011.5 1010.3 0.0
19/01:30am 17.4 13.0 6.6 49 5.4 SSW 19 24 10 13 1011.6 1010.4 0.0
19/01:00am 18.2 12.9 6.7 47 5.8 SSW 24 33 13 18 1011.7 1010.5 0.0
19/12:30am 18.8 14.3 6.3 44 6.3 SSW 19 26 10 14 1011.4 1010.2 0.0
19/12:00am 19.2 14.4 5.6 41 6.8 SSW 20 26 11 14 1011.1 1010.0 0.0
 
Date/Time
EDT
Temp
°C
App
Temp
°C
Dew
Point
Rel
Hum
%
Delta-T
°C
Wind Press
QNH
hPa
Press
MSL
hPa
Rain
since 9 am
mm
Dir
 
Spd
km/h
Gust
km/h
Spd
kts
Gust
kts
18/11:30pm 20.5 15.4 4.1 34 8.0 SSW 20 39 11 21 1010.9 1009.8 0.0
18/11:00pm 21.0 16.3 3.2 31 8.6 SW 17 26 9 14 1010.4 1009.2 0.0
18/10:30pm 21.7 17.0 3.4 30 8.9 SW 17 24 9 13 1010.4 1009.2 0.0
18/10:00pm 22.9 16.9 3.4 28 9.6 SW 24 39 13 21 1010.0 1008.8 0.0
18/09:30pm 23.8 17.2 2.0 24 10.5 SW 26 41 14 22 1009.3 1008.1 0.0
18/09:00pm 24.9 18.4 2.4 23 11.0 SW 26 39 14 21 1008.7 1007.5 0.0
18/08:30pm 25.6 19.6 1.0 20 11.8 SW 22 30 12 16 1008.3 1007.1 0.0
18/08:00pm 27.0 20.4 -0.1 17 12.8 WSW 24 41 13 22 1007.8 1006.6 0.0
18/07:30pm 28.2 20.8 -0.9 15 13.7 W 28 41 15 22 1007.4 1006.1 0.0
18/07:00pm 29.0 21.5 -1.2 14 14.2 WSW 28 46 15 25 1007.0 1005.8 0.0
18/06:54pm 29.2 21.8 -1.0 14 14.3 W 28 46 15 25 1007.0 1005.8 0.0
18/06:30pm 29.8 22.7 -1.5 13 14.7 W 26 39 14 21 1006.8 1005.6 0.0
18/06:00pm 29.8 21.8 -2.6 12 15.0 W 30 43 16 23 1006.4 1005.2 0.0
18/05:30pm 30.5 21.7 -4.5 10 15.7 W 33 54 18 29 1006.3 1005.1 0.0
18/05:05pm 30.9 22.1 -4.2 10 15.9 WNW 33 54 18 29 1006.2 1005.0 0.0
18/05:00pm 30.7 22.5 -4.4 10 15.9 WNW 30 46 16 25 1006.2 1005.0 0.0
18/04:50pm 30.3 21.5 -4.7 10 15.6 W 33 50 18 27 1006.4 1005.2 0.0
18/04:45pm 31.1 22.5 -4.1 10 16.0 W 32 50 17 27 1006.3 1005.1 0.0
18/04:30pm 31.1 23.6 -4.1 10 16.0 W 26 43 14 23 1006.5 1005.3 0.0
18/04:22pm 30.8 22.6 -4.3 10 15.9 WNW 30 50 16 27 1006.3 1005.1 0.0
18/04:18pm 31.0 22.2 -4.1 10 15.9 WNW 33 50 18 27 1006.5 1005.3 0.0
18/04:00pm 30.5 23.1 -3.3 11 15.5 W 26 44 14 24 1006.6 1005.4 0.0
18/03:30pm 31.0 23.3 -2.9 11 15.7 WNW 28 48 15 26 1006.6 1005.4 0.0
18/03:00pm 31.0 22.4 -4.1 10 16.0 WSW 32 50 17 27 1006.6 1005.4 0.0
18/02:42pm 30.0 22.2 -3.6 11 15.3 W 28 46 15 25 1006.6 1005.4 0.0
18/02:30pm 30.8 22.9 -4.3 10 15.9 W 28 44 15 24 1006.6 1005.4 0.0
18/02:00pm 30.8 23.2 -1.9 12 15.4 WNW 28 46 15 25 1007.0 1005.8 0.0
18/01:43pm 31.2 23.8 -0.5 13 15.3 W 28 48 15 26 1007.1 1005.9 0.0
18/01:30pm 29.5 23.4 0.2 15 14.2 WSW 22 32 12 17 1007.4 1006.1 0.0
18/01:00pm 29.1 23.5 -0.1 15 14.1 WSW 19 33 10 18 1007.5 1006.2 0.0
18/12:30pm 28.4 22.6 0.2 16 13.5 WNW 20 33 11 18 1007.8 1006.6 0.0
18/12:00pm 27.5 23.1 0.3 17 13.0 NW 13 28 7 15 1008.2 1007.0 0.0
18/11:30am 27.4 22.6 0.2 17 13.0 WNW 15 24 8 13 1008.5 1007.3 0.0
18/11:00am 26.4 21.2 0.2 18 12.4 WSW 17 30 9 16 1008.8 1007.6 0.0
18/10:30am 25.9 20.7 2.6 22 11.5 W 19 32 10 17 1008.8 1007.6 0.0
18/10:00am 23.6 20.7 4.5 29 9.6 N 9 15 5 8 1008.9 1007.7 0.0
18/09:30am 23.0 21.2 7.9 38 8.0 NE 7 15 4 8 1009.1 1007.9 0.0
18/09:00am 21.8 20.4 9.7 46 6.6 ENE 7 13 4 7 1009.1 1007.9 0.0
18/08:30am 20.2 17.9 10.3 53 5.4 ENE 13 19 7 10 1009.1 1007.9 0.0
18/08:00am 18.6 16.0 10.7 60 4.3 E 15 20 8 11 1009.0 1007.8 0.0
18/07:30am 16.8 14.7 11.1 69 3.1 E 13 19 7 10 1009.1 1007.9 0.0
18/07:00am 12.4 12.6 10.5 88 1.0 CALM 0 0 0 0 1009.0 1007.8 0.0
18/06:30am 9.4 8.6 6.7 83 1.3 CALM 0 0 0 0 1009.0 1007.8 0.0
18/06:00am 9.3 8.6 7.1 86 1.1 CALM 0 0 0 0 1008.7 1007.5 0.0
18/05:30am 9.7 9.1 7.3 85 1.2 CALM 0 0 0 0 1008.4 1007.2 0.0
18/05:00am 9.7 8.9 6.6 81 1.5 CALM 0 0 0 0 1007.9 1006.7 0.0
18/04:30am 9.5 8.4 5.1 74 2.0 CALM 0 0 0 0 1007.6 1006.4 0.0
18/04:00am 12.4 11.3 8.3 76 2.1 E 4 7 2 4 1007.4 1006.1 0.0
18/03:30am 12.6 12.0 7.5 71 2.5 CALM 0 0 0 0 1007.5 1006.2 0.0
18/03:00am 14.9 13.4 9.1 68 3.0 ESE 7 13 4 7 1007.4 1006.1 0.0
18/02:30am 15.3 12.8 8.1 62 3.7 E 11 15 6 8 1007.4 1006.1 0.0
18/02:00am 15.9 12.6 6.6 54 4.6 ESE 13 17 7 9 1007.4 1006.1 0.0
18/01:30am 13.2 11.2 2.4 48 4.8 ENE 2 9 1 5 1008.0 1006.8 0.0
18/01:00am 12.0 10.4 2.2 51 4.3 CALM 0 0 0 0 1007.7 1006.5 0.0
18/12:30am 12.7 9.9 2.3 49 4.6 SSW 6 7 3 4 1007.4 1006.1 0.0
18/12:00am 14.3 11.2 0.2 38 6.1 SSE 6 7 3 4 1007.4 1006.1 0.0
 
Date/Time
EDT
Temp
°C
App
Temp
°C
Dew
Point
Rel
Hum
%
Delta-T
°C
Wind Press
QNH
hPa
Press
MSL
hPa
Rain
since 9 am
mm
Dir
 
Spd
km/h
Gust
km/h
Spd
kts
Gust
kts
17/11:30pm 14.6 11.6 0.5 38 6.1 SSW 6 7 3 4 1007.6 1006.4 0.0
17/11:00pm 15.7 12.6 -0.1 34 6.8 SSW 6 7 3 4 1007.7 1006.5 0.0
17/10:30pm 16.0 12.3 0.2 34 6.9 S 9 11 5 6 1007.7 1006.5 0.0
17/10:00pm 17.8 14.0 -0.9 28 8.1 SSW 9 11 5 6 1007.7 1006.5 0.0
17/09:30pm 18.6 15.2 -2.3 24 8.8 SW 6 7 3 4 1007.6 1006.4 0.0
17/09:00pm 20.0 16.5 -1.2 24 9.3 SSW 7 9 4 5 1007.4 1006.1 0.0
17/08:30pm 21.8 17.6 -4.3 17 10.9 WSW 9 11 5 6 1007.0 1005.8 0.0
17/08:00pm 22.9 18.3 -4.2 16 11.5 WSW 11 15 6 8 1006.7 1005.5 0.0
17/07:30pm 24.7 20.0 -5.5 13 12.7 WSW 11 15 6 8 1006.1 1004.9 0.0
17/07:00pm 26.9 22.6 -4.9 12 13.8 WSW 9 15 5 8 1005.9 1004.7 0.0
17/06:30pm 27.5 23.1 -5.6 11 14.2 W 9 15 5 8 1005.9 1004.7 0.0
17/06:00pm 27.2 22.2 -4.6 12 13.9 SW 13 20 7 11 1005.7 1004.5 0.0
17/05:30pm 27.0 22.2 -5.9 11 14.0 WNW 11 19 6 10 1005.7 1004.5 0.0
17/05:00pm 27.6 22.6 -4.3 12 14.1 WNW 13 20 7 11 1005.9 1004.7 0.0
17/04:30pm 27.5 22.7 -5.6 11 14.2 WNW 11 20 6 11 1005.9 1004.7 0.0
17/04:00pm 26.4 22.1 -5.3 12 13.6 SSW 9 15 5 8 1006.1 1004.9 0.0
17/03:30pm 27.5 22.5 -4.4 12 14.0 WNW 13 24 7 13 1006.3 1005.1 0.0
17/03:00pm 26.5 21.0 -5.2 12 13.6 WSW 15 30 8 16 1006.7 1005.5 0.0
17/02:30pm 26.5 21.1 -4.1 13 13.4 WSW 15 22 8 12 1006.9 1005.7 0.0
17/02:00pm 25.0 19.4 -6.3 12 13.0 SSW 15 28 8 15 1007.1 1005.9 0.0
17/01:30pm 25.4 19.9 -5.0 13 13.0 WSW 15 32 8 17 1007.1 1005.9 0.0
17/01:00pm 24.1 19.0 -5.0 14 12.3 SW 13 22 7 12 1007.7 1006.5 0.0
17/12:30pm 24.3 18.6 -4.0 15 12.2 SW 17 30 9 16 1007.8 1006.6 0.0
17/12:00pm 23.1 17.8 -3.3 17 11.4 SW 15 24 8 13 1007.9 1006.7 0.0
17/11:30am 22.8 17.6 -2.7 18 11.1 SW 15 20 8 11 1008.1 1006.9 0.0
17/11:00am 20.6 15.4 -3.1 20 10.1 SW 15 26 8 14 1008.3 1007.1 0.0
17/10:30am 20.0 14.9 -1.7 23 9.4 WSW 15 26 8 14 1008.2 1007.0 0.0
17/10:00am 19.6 14.2 -1.5 24 9.2 WSW 17 24 9 13 1008.4 1007.2 0.0
17/09:30am 19.2 14.5 0.8 29 8.3 SSW 15 24 8 13 1008.5 1007.3 0.0
17/09:00am 17.8 12.7 0.9 32 7.6 SW 17 22 9 12 1008.5 1007.3 0.0
17/08:30am 16.6 11.7 1.9 37 6.7 SW 17 24 9 13 1008.4 1007.2 0.0
17/08:00am 15.6 10.8 2.4 41 6.0 SSW 17 24 9 13 1007.9 1006.7 0.0
17/07:30am 14.8 10.1 3.0 45 5.4 SW 17 26 9 14 1007.6 1006.4 0.0
17/07:00am 14.1 10.3 4.1 51 4.7 SW 13 20 7 11 1007.0 1005.8 0.0
17/06:30am 12.9 9.9 4.1 55 4.1 SW 9 15 5 8 1006.5 1005.3 0.0
17/06:00am 12.3 8.0 3.5 55 4.0 WSW 15 20 8 11 1006.0 1004.8 0.0
17/05:30am 12.9 8.9 2.7 50 4.6 SW 13 17 7 9 1005.8 1004.6 0.0
17/05:00am 14.4 10.0 2.9 46 5.2 SSW 15 24 8 13 1005.4 1004.2 0.0
17/04:30am 15.1 10.1 4.5 49 5.0 SW 20 28 11 15 1004.6 1003.4 0.0
17/04:00am 16.0 11.2 4.4 46 5.5 SW 19 28 10 15 1004.6 1003.4 0.0
17/03:30am 16.6 12.1 4.0 43 6.0 SW 17 30 9 16 1004.4 1003.2 0.0
17/03:00am 17.2 11.5 3.1 39 6.6 SW 22 32 12 17 1004.4 1003.2 0.0
17/02:30am 18.0 13.3 3.1 37 7.0 SW 17 26 9 14 1004.4 1003.2 0.0
17/02:00am 18.5 13.4 2.8 35 7.4 SW 19 28 10 15 1004.2 1002.9 0.0
17/01:30am 19.3 13.3 3.1 34 7.7 SW 24 33 13 18 1004.2 1002.9 0.0
17/01:00am 20.1 13.8 5.7 39 7.3 SW 28 46 15 25 1003.9 1002.6 0.0
17/12:48am 20.4 14.1 5.6 38 7.4 SW 28 46 15 25 1003.9 1002.6 0.0
17/12:30am 20.8 13.7 6.4 39 7.4 SW 33 46 18 25 1003.8 1002.5 0.0
17/12:00am 21.6 15.0 7.8 41 7.3 SSW 32 50 17 27 1003.1 1001.9 0.0
 
Date/Time
EDT
Temp
°C
App
Temp
°C
Dew
Point
Rel
Hum
%
Delta-T
°C
Wind Press
QNH
hPa
Press
MSL
hPa
Rain
since 9 am
mm
Dir
 
Spd
km/h
Gust
km/h
Spd
kts
Gust
kts
16/11:30pm 22.9 15.8 8.2 39 7.9 SW 35 57 19 31 1002.7 1001.5 0.0
16/11:07pm 24.6 16.9 7.3 33 9.2 SW 37 59 20 32 1002.0 1000.8 0.0
16/11:00pm 25.4 17.3 7.1 31 9.8 SW 39 54 21 29 1001.7 1000.5 0.0
16/10:50pm 27.5 20.7 3.2 21 12.2 SW 28 57 15 31 1001.4 1000.2 0.0
16/10:30pm 28.3 21.6 1.7 18 13.1 SW 26 41 14 22 1000.9 999.6 0.0
16/10:00pm 28.0 24.5 5.6 24 11.9 W 13 19 7 10 1000.4 999.1 0.0
16/09:30pm 30.6 26.4 1.9 16 14.4 W 13 20 7 11 999.4 998.2 0.0
16/09:00pm 31.0 26.8 1.4 15 14.9 W 13 20 7 11 998.8 997.6 0.0
16/08:30pm 32.5 26.0 0.6 13 15.9 W 24 37 13 20 998.8 997.6 0.0
16/08:00pm 33.1 25.8 -0.1 12 16.5 W 28 41 15 22 998.7 997.5 0.0
16/07:30pm 33.6 25.2 -0.9 11 16.8 W 33 54 18 29 998.6 997.4 0.0
16/07:00pm 34.4 26.5 -1.6 10 17.6 WNW 30 52 16 28 998.5 997.3 0.0
16/06:35pm 35.0 27.0 -2.6 9 18.0 W 30 50 16 27 998.6 997.4 0.0
16/06:30pm 34.9 27.0 -1.2 10 17.7 W 30 44 16 24 998.5 997.3 0.0
16/06:12pm 35.2 26.2 -2.4 9 18.1 W 35 54 19 29 998.4 997.2 0.0
16/06:00pm 35.3 26.0 -2.3 9 18.3 W 37 54 20 29 998.5 997.3 0.0
16/05:32pm 36.0 27.5 -3.4 8 18.8 W 32 50 17 27 998.5 997.3 0.0
16/05:30pm 35.7 26.6 -3.6 8 18.6 W 35 50 19 27 998.7 997.5 0.0
16/05:00pm 35.2 25.7 -4.0 8 18.5 WSW 37 56 20 30 998.9 997.7 0.0
16/04:31pm 35.7 26.2 -7.4 6 19.2 WSW 35 56 19 30 999.1 997.9 0.0
16/04:30pm 35.4 26.3 -7.6 6 19.1 W 33 50 18 27 999.3 998.1 0.0
16/04:00pm 36.0 26.0 -9.5 5 19.8 W 37 56 20 30 999.4 998.2 0.0
16/03:41pm 35.7 25.3 -9.7 5 19.5 W 39 61 21 33 999.4 998.2 0.0
16/03:37pm 35.4 24.6 -9.9 5 19.4 WSW 41 57 22 31 999.5 998.3 0.0
16/03:30pm 35.6 25.2 -9.8 5 19.5 WSW 39 57 21 31 999.5 998.3 0.0
16/03:09pm 36.2 26.5 -9.4 5 19.8 W 35 54 19 29 999.6 998.4 0.0
16/03:00pm 35.6 25.2 -9.8 5 19.6 WSW 39 54 21 29 1000.0 998.7 0.0
16/02:30pm 35.6 24.6 -7.5 6 19.2 W 43 65 23 35 1000.2 998.9 0.0

Other Formats:

Comma delimited format used in spreadsheet applications
http://www.bom.gov.au/fwo/IDN60801/IDN60801.95722.axf

JavaScript Object Notation format (JSON) in row-major order
http://www.bom.gov.au/fwo/IDN60801/IDN60801.95722.json